Weather History for Kenai, AK

Change the Weather History Date:

Saturday, May 4, 2013

  Actual Average Record
Temperature  
Mean Temperature 36 °F -  
Max Temperature 39 °F 47 °F 66 °F (2004)
Min Temperature 32 °F 33 °F 18 °F (1965)
Degree Days  
Heating Degree Days 30    
Moisture  
Dew Point 31 °F    
Average Humidity 87    
Maximum Humidity 100    
Minimum Humidity 67    
Precipitation  
Precipitation 0.04 in - - ()
Sea Level Pressure  
Sea Level Pressure 29.82 in    
Wind  
Wind Speed 3 mph (West)    
Max Wind Speed 15 mph    
Max Gust Speed -    
Visibility 8 miles    
Events Snow    
Averages and records for this station are not official NWS values.
T = Trace of Precipitation, MM = Missing Value Source: NWS Daily Summary

Daily Weather History Graph

Daily Weather History Graph

Search for Another Location

Airport:

Trip Planner

Search our weather history database for the weather conditions in past years. The results will help you decide how hot, cold, wet, or windy it might be!

Date:

Astronomy

May. 04, 2013 Rise Set
Actual Time 5:50 AM AKDT 10:15 PM AKDT
Civil Twilight 4:53 AM AKDT 11:12 PM AKDT
Nautical Twilight 3:13 AM AKDT 12:57 AM AKDT
Astronomical Twilight Sun does not rise Sun does not rise
Moon 4:17 AM AKDT (5/4) 4:07 PM AKDT (5/4)
Length of Visible Light 18h 19m
Length of Day
16h 24m
Waning Crescent, 25% of the Moon is Illuminated
May 4
Waning Crescent
May 9
New
May 17
First Quarter
May 24
Full
May 31
Last Quarter

Hourly Weather History & Observations

Time (AKDT) Temp. Windchill Dew Point Humidity Pressure Visibility Wind Dir Wind Speed Gust Speed Precip Events Conditions
12:53 AM 35.1 °F - 28.0 °F 76% 29.91 in 10.0 mi Calm Calm - N/A   Overcast
1:53 AM 34.0 °F 29.8 °F 28.0 °F 79% 29.89 in 10.0 mi NE 4.6 mph - N/A   Overcast
2:53 AM 33.1 °F 30.0 °F 28.9 °F 85% 29.88 in 10.0 mi NE 3.5 mph - N/A   Overcast
3:53 AM 33.1 °F - 30.9 °F 92% 29.86 in 10.0 mi Calm Calm - N/A   Overcast
4:53 AM 33.1 °F 27.7 °F 32.0 °F 96% 29.83 in 10.0 mi East 5.8 mph - N/A   Overcast
5:53 AM 33.1 °F 30.0 °F 32.0 °F 96% 29.83 in 10.0 mi ENE 3.5 mph - N/A   Overcast
6:14 AM 33.8 °F - 32.0 °F 93% 29.81 in 10.0 mi Calm Calm - N/A   Overcast
6:26 AM 32.0 °F - 32.0 °F 100% 29.81 in 10.0 mi Calm Calm - N/A   Overcast
6:53 AM 33.1 °F - 32.0 °F 96% 29.81 in 10.0 mi Calm Calm - N/A   Overcast
7:49 AM 33.8 °F - 32.0 °F 93% 29.79 in 7.0 mi Calm Calm - 0.00 in Snow Light Snow
7:53 AM 32.0 °F - 32.0 °F 100% 29.80 in 5.0 mi Calm Calm - 0.00 in Snow Light Snow
8:08 AM 32.0 °F - 32.0 °F 100% 29.78 in 2.0 mi Calm Calm - 0.01 in Snow Light Snow
8:39 AM 32.0 °F - 32.0 °F 100% 29.78 in 2.0 mi Calm Calm - 0.01 in Snow Light Snow
8:46 AM 32.0 °F - 32.0 °F 100% 29.78 in 1.5 mi Calm Calm - 0.02 in Snow Light Snow
8:53 AM 32.0 °F - 32.0 °F 100% 29.79 in 1.2 mi Calm Calm - 0.02 in Snow Light Snow
9:32 AM 32.0 °F 28.7 °F 32.0 °F 100% 29.78 in 2.0 mi NNW 3.5 mph - 0.01 in Snow Light Snow
9:46 AM 33.8 °F 30.8 °F 32.0 °F 93% 29.78 in 3.0 mi NNW 3.5 mph - 0.01 in Snow Light Snow
9:53 AM 33.1 °F 30.0 °F 32.0 °F 96% 29.78 in 4.0 mi NNW 3.5 mph - 0.02 in Snow Light Snow
10:40 AM 33.8 °F - 33.8 °F 100% 29.77 in 7.0 mi Calm Calm - 0.00 in Snow Light Snow
10:53 AM 35.1 °F 32.2 °F 33.1 °F 92% 29.78 in 10.0 mi North 3.5 mph - 0.00 in   Overcast
11:06 AM 35.6 °F 31.7 °F 33.8 °F 93% 29.77 in 10.0 mi NNE 4.6 mph - N/A   Overcast
11:39 AM 37.4 °F 33.8 °F 33.8 °F 87% 29.77 in 10.0 mi North 4.6 mph - N/A   Overcast
11:50 AM 37.4 °F 34.9 °F 33.8 °F 87% 29.77 in 10.0 mi North 3.5 mph - N/A   Overcast
11:53 AM 37.0 °F 34.5 °F 33.1 °F 86% 29.78 in 10.0 mi North 3.5 mph - N/A   Overcast
12:53 PM 37.0 °F 31.0 °F 34.0 °F 89% 29.79 in 10.0 mi West 8.1 mph - N/A   Overcast
1:53 PM 37.0 °F 29.8 °F 32.0 °F 82% 29.80 in 10.0 mi SW 10.4 mph - N/A   Overcast
2:53 PM 39.0 °F 33.4 °F 30.0 °F 70% 29.81 in 10.0 mi SSW 8.1 mph - N/A   Overcast
3:53 PM 37.9 °F 31.5 °F 30.9 °F 76% 29.81 in 10.0 mi SW 9.2 mph - N/A   Overcast
4:53 PM 39.9 °F 32.9 °F 30.9 °F 70% 29.82 in 10.0 mi SW 11.5 mph - N/A   Overcast
5:53 PM 39.0 °F 32.3 °F 30.9 °F 73% 29.83 in 10.0 mi SW 10.4 mph - N/A   Overcast
6:53 PM 39.9 °F 32.9 °F 30.9 °F 70% 29.84 in 10.0 mi SSW 11.5 mph - N/A   Mostly Cloudy
7:53 PM 39.0 °F 30.6 °F 30.0 °F 70% 29.86 in 10.0 mi SSW 15.0 mph - N/A   Mostly Cloudy
8:53 PM 39.0 °F 31.8 °F 30.0 °F 70% 29.88 in 10.0 mi SSW 11.5 mph - N/A   Mostly Cloudy
9:53 PM 37.0 °F 28.9 °F 28.9 °F 73% 29.90 in 10.0 mi SSW 12.7 mph - N/A   Overcast
10:53 PM 36.0 °F 30.3 °F 26.1 °F 67% 29.93 in 10.0 mi South 6.9 mph - N/A   Mostly Cloudy
11:53 PM 33.1 °F 30.0 °F 28.9 °F 85% 29.94 in 10.0 mi SSE 3.5 mph - N/A   Partly Cloudy